,,Stat5,,Stat1,,Stat2,,Stat3,,Stat4,,Wind1,,Wind1,
time,status,PA1M_AVG,status,PR1M_SUM,status,RH1M_AVG,status,SR1M_AVG,status,TA1M_AVG,status,W1dAve1m,status,W1sAve1m,
2002-03-02, 00:00:00,VALID,917.553,VALID,0,VALID,96.1333,VALID,0.0849042,VALID,19.3979,VALID,145,VALID,1.51645,
2002-03-02, 00:01:00,VALID,917.554,VALID,0,VALID,96.1295,VALID,0.0849042,VALID,19.3911,VALID,146,VALID,1.61942,
2002-03-02, 00:02:00,VALID,917.552,VALID,0,VALID,96.1295,VALID,0.101885,VALID,19.4036,VALID,146,VALID,1.55611,
2002-03-02, 00:03:00,VALID,917.551,VALID,0,VALID,96.0774,VALID,0.0339617,VALID,19.4167,VALID,148,VALID,1.34313,
2002-03-02, 00:04:00,VALID,917.566,VALID,0,VALID,96.0748,VALID,0.0169808,VALID,19.4304,VALID,144,VALID,1.08906,
2002-03-02, 00:05:00,VALID,917.561,VALID,0,VALID,96.0443,VALID,0.0339617,VALID,19.4406,VALID,143,VALID,1.26585,
2002-03-02, 00:06:00,VALID,917.566,VALID,0,VALID,96.0888,VALID,0.0509425,VALID,19.4398,VALID,140,VALID,0.864309,
2002-03-02, 00:07:00,VALID,917.555,VALID,0,VALID,96.1943,VALID,0.0509425,VALID,19.4461,VALID,135,VALID,1.03237,
2002-03-02, 00:08:00,VALID,917.566,VALID,0,VALID,96.1905,VALID,0.0169808,VALID,19.4555,VALID,130,VALID,1.11979,
2002-03-02, 00:09:00,VALID,917.566,VALID,0,VALID,96.16,VALID,0.0679233,VALID,19.4595,VALID,137,VALID,0.602407,
2002-03-02, 00:10:00,VALID,917.569,VALID,0,VALID,96.2312,VALID,-0.0339617,VALID,19.4572,VALID,121,VALID,0.802998,
2002-03-02, 00:11:00,VALID,917.554,VALID,0,VALID,96.2808,VALID,-0.0339617,VALID,19.4542,VALID,145,VALID,1.21806,
2002-03-02, 00:12:00,VALID,917.527,VALID,0,VALID,96.3533,VALID,-0.0339617,VALID,19.4575,VALID,135,VALID,0.885016,
2002-03-02, 00:13:00,VALID,917.526,VALID,0,VALID,96.4321,VALID,-0.0339617,VALID,19.4637,VALID,153,VALID,1.48351,
2002-03-02, 00:14:00,VALID,917.517,VALID,0,VALID,96.4614,VALID,-0.0509425,VALID,19.4639,VALID,137,VALID,1.6875,
2002-03-02, 00:15:00,VALID,917.526,VALID,0,VALID,96.4588,VALID,-0.0509425,VALID,19.4768,VALID,141,VALID,1.19032,
2002-03-02, 00:16:00,VALID,917.515,VALID,0,VALID,96.469,VALID,-0.0339617,VALID,19.4706,VALID,112,VALID,0.925998,
2002-03-02, 00:17:00,VALID,917.519,VALID,0,VALID,96.4245,VALID,-0.0169808,VALID,19.4537,VALID,105,VALID,0.590993,
2002-03-02, 00:18:00,VALID,917.51,VALID,0,VALID,96.4652,VALID,0,VALID,19.4443,VALID,131,VALID,0.977829,
2002-03-02, 00:19:00,VALID,917.504,VALID,0,VALID,96.5033,VALID,-0.0169808,VALID,19.4311,VALID,152,VALID,1.14353,
2002-03-02, 00:20:00,VALID,917.495,VALID,0,VALID,96.5389,VALID,0,VALID,19.4279,VALID,134,VALID,1.15104,
2002-03-02, 00:21:00,VALID,917.502,VALID,0,VALID,96.5326,VALID,0,VALID,19.4249,VALID,151,VALID,0.834459,
2002-03-02, 00:22:00,VALID,917.498,VALID,0,VALID,96.6407,VALID,-0.0339617,VALID,19.4088,VALID,144,VALID,1.26267,
2002-03-02, 00:23:00,VALID,917.485,VALID,0,VALID,96.7068,VALID,-0.0339617,VALID,19.4088,VALID,153,VALID,1.41643,
2002-03-02, 00:24:00,VALID,917.476,VALID,0,VALID,96.7195,VALID,-0.0509425,VALID,19.4321,VALID,152,VALID,1.41775,
2002-03-02, 00:25:00,VALID,917.482,VALID,0,VALID,96.6954,VALID,-0.0509425,VALID,19.4122,VALID,149,VALID,1.47569,
2002-03-02, 00:26:00,VALID,917.46,VALID,0,VALID,96.6483,VALID,-0.0509425,VALID,19.3993,VALID,159,VALID,1.14085,
2002-03-02, 00:27:00,VALID,917.465,VALID,0,VALID,96.6661,VALID,-0.0509425,VALID,19.3929,VALID,138,VALID,0.920608,
2002-03-02, 00:28:00,VALID,917.461,VALID,0,VALID,96.6445,VALID,-0.0339617,VALID,19.3767,VALID,144,VALID,1.34978,
2002-03-02, 00:29:00,VALID,917.452,VALID,0,VALID,96.6903,VALID,-0.0509425,VALID,19.3707,VALID,143,VALID,1.21496,
2002-03-02, 00:30:00,VALID,917.439,VALID,0,VALID,96.689,VALID,-0.0849042,VALID,19.3509,VALID,143,VALID,0.897171,
2002-03-02, 00:31:00,VALID,917.416,VALID,0,VALID,96.7068,VALID,-0.0849042,VALID,19.3377,VALID,142,VALID,0.861486,
2002-03-02, 00:32:00,VALID,917.414,VALID,0,VALID,96.7081,VALID,-0.0169808,VALID,19.3248,VALID,146,VALID,1.16193,
2002-03-02, 00:33:00,VALID,917.416,VALID,0,VALID,96.6598,VALID,-0.0679233,VALID,19.3124,VALID,153,VALID,0.779731,
2002-03-02, 00:34:00,VALID,917.408,VALID,0,VALID,96.6165,VALID,-0.0339617,VALID,19.2994,VALID,149,VALID,1.00738,
2002-03-02, 00:35:00,VALID,917.405,VALID,0,VALID,96.6241,VALID,-0.0679233,VALID,19.2833,VALID,148,VALID,1.06572,
2002-03-02, 00:36:00,VALID,917.397,VALID,0,VALID,96.6788,VALID,-0.0849042,VALID,19.2801,VALID,147,VALID,1.50443,
2002-03-02, 00:37:00,VALID,917.396,VALID,0,VALID,96.6941,VALID,-0.0339617,VALID,19.2798,VALID,150,VALID,1.57299,
2002-03-02, 00:38:00,VALID,917.397,VALID,0,VALID,96.6915,VALID,-0.0679233,VALID,19.2833,VALID,147,VALID,1.65767,
2002-03-02, 00:39:00,VALID,917.393,VALID,0,VALID,96.647,VALID,-0.0339617,VALID,19.2798,VALID,141,VALID,1.22593,
2002-03-02, 00:40:00,VALID,917.378,VALID,0,VALID,96.628,VALID,-0.0339617,VALID,19.2796,VALID,133,VALID,1.04793,
2002-03-02, 00:41:00,VALID,917.353,VALID,0,VALID,96.5962,VALID,-0.0509425,VALID,19.2763,VALID,129,VALID,1.12737,
2002-03-02, 00:42:00,VALID,917.333,VALID,0,VALID,96.5262,VALID,-0.0679233,VALID,19.2768,VALID,153,VALID,1.25304,
2002-03-02, 00:43:00,VALID,917.314,VALID,0,VALID,96.441,VALID,-0.0679233,VALID,19.2701,VALID,151,VALID,0.90842,
2002-03-02, 00:44:00,VALID,917.297,VALID,0,VALID,96.3813,VALID,-0.0509425,VALID,19.2669,VALID,144,VALID,0.917739,
2002-03-02, 00:45:00,VALID,917.274,VALID,0,VALID,96.3139,VALID,-0.0339617,VALID,19.2567,VALID,151,VALID,1.07285,
2002-03-02, 00:46:00,VALID,917.264,VALID,0,VALID,96.2414,VALID,-0.0679233,VALID,19.2641,VALID,147,VALID,0.815848,
2002-03-02, 00:47:00,VALID,917.246,VALID,0,VALID,96.2032,VALID,-0.0509425,VALID,19.2679,VALID,142,VALID,0.976089,
2002-03-02, 00:48:00,VALID,917.228,VALID,0,VALID,96.1549,VALID,-0.0509425,VALID,19.2542,VALID,149,VALID,1.15857,
2002-03-02, 00:49:00,VALID,917.212,VALID,0,VALID,96.0863,VALID,-0.0509425,VALID,19.2478,VALID,143,VALID,0.988387,
2002-03-02, 00:50:00,VALID,917.201,VALID,0,VALID,96.0061,VALID,-0.0339617,VALID,19.2445,VALID,139,VALID,1.02486,
2002-03-02, 00:51:00,VALID,917.179,VALID,0,VALID,95.926,VALID,-0.0169808,VALID,19.2411,VALID,144,VALID,0.813368,
2002-03-02, 00:52:00,VALID,917.184,VALID,0,VALID,95.8408,VALID,-0.0679233,VALID,19.2406,VALID,133,VALID,0.862413,
2002-03-02, 00:53:00,VALID,917.167,VALID,0,VALID,95.7607,VALID,-0.0509425,VALID,19.2579,VALID,137,VALID,0.919347,
2002-03-02, 00:54:00,VALID,917.175,VALID,0,VALID,95.6374,VALID,-0.0849042,VALID,19.2805,VALID,144,VALID,0.98522,
2002-03-02, 00:55:00,VALID,917.169,VALID,0,VALID,95.5191,VALID,0,VALID,19.2915,VALID,123,VALID,0.672768,
2002-03-02, 00:56:00,VALID,917.169,VALID,0,VALID,95.3487,VALID,0.0679233,VALID,19.301,VALID,113,VALID,0.393229,
2002-03-02, 00:57:00,VALID,917.154,VALID,0,VALID,95.2801,VALID,0.0339617,VALID,19.3012,VALID,91,VALID,0.354096,
2002-03-02, 00:58:00,VALID,917.124,VALID,0,VALID,95.2203,VALID,0.0509425,VALID,19.2848,VALID,141,VALID,0.515203,
2002-03-02, 00:59:00,VALID,917.109,VALID,0,VALID,95.378,VALID,0.0339617,VALID,19.2816,VALID,149,VALID,0.913116,
2002-03-02, 01:00:00,VALID,917.089,VALID,0,VALID,95.4555,VALID,0.0339617,VALID,19.2818,VALID,133,VALID,0.13239,
2002-03-02, 01:01:00,VALID,917.083,VALID,0,VALID,95.3614,VALID,0.0509425,VALID,19.2465,VALID,91,VALID,0.33138,
2002-03-02, 01:02:00,VALID,917.081,VALID,0,VALID,95.528,VALID,0.0169808,VALID,19.2339,VALID,123,VALID,0.338465,
2002-03-02, 01:03:00,VALID,917.073,VALID,0,VALID,95.3551,VALID,0.0169808,VALID,19.1879,VALID,48,VALID,0.460726,
2002-03-02, 01:04:00,VALID,917.069,VALID,0,VALID,95.3475,VALID,0.0679233,VALID,19.1434,VALID,61,VALID,0.531027,
2002-03-02, 01:05:00,VALID,917.051,VALID,0,VALID,95.6361,VALID,0.0679233,VALID,19.1044,VALID,84,VALID,0.347538,
2002-03-02, 01:06:00,VALID,917.046,VALID,0,VALID,95.804,VALID,0.0339617,VALID,19.0947,VALID,96,VALID,0.300465,
2002-03-02, 01:07:00,VALID,917.031,VALID,0,VALID,95.9972,VALID,0.0169808,VALID,19.0913,VALID,101,VALID,0.38239,
2002-03-02, 01:08:00,VALID,917.02,VALID,0,VALID,96.0634,VALID,0.0849042,VALID,19.0885,VALID,78,VALID,0.350379,
2002-03-02, 01:09:00,VALID,917.036,VALID,0,VALID,96.2643,VALID,0.0509425,VALID,19.0853,VALID,126,VALID,0.82921,
2002-03-02, 01:10:00,VALID,917.04,VALID,0,VALID,96.2655,VALID,0.0509425,VALID,19.1017,VALID,108,VALID,0.364583,
2002-03-02, 01:11:00,VALID,917.047,VALID,0,VALID,96.2376,VALID,0.0169808,VALID,19.095,VALID,104,VALID,0.452895,
2002-03-02, 01:12:00,VALID,917.035,VALID,0,VALID,96.2198,VALID,0.0169808,VALID,19.1081,VALID,104,VALID,0.143581,
2002-03-02, 01:13:00,VALID,917.038,VALID,0,VALID,96.2477,VALID,0.0169808,VALID,19.098,VALID,114,VALID,0.535937,
2002-03-02, 01:14:00,VALID,917.028,VALID,0,VALID,96.3507,VALID,0.0339617,VALID,19.1111,VALID,158,VALID,0.763731,
2002-03-02, 01:15:00,VALID,917.019,VALID,0,VALID,96.3622,VALID,0.0509425,VALID,19.1367,VALID,111,VALID,0.875845,
2002-03-02, 01:16:00,VALID,917.032,VALID,0,VALID,96.1943,VALID,0.0169808,VALID,19.1434,VALID,114,VALID,0.205236,
2002-03-02, 01:17:00,VALID,917.012,VALID,0,VALID,96.146,VALID,0.0339617,VALID,19.1534,VALID,118,VALID,0.395833,
2002-03-02, 01:18:00,VALID,916.989,VALID,0,VALID,96.2071,VALID,0.0509425,VALID,19.1561,VALID,141,VALID,0.65842,
2002-03-02, 01:19:00,VALID,916.972,VALID,0,VALID,96.1689,VALID,0.0169808,VALID,19.166,VALID,154,VALID,0.840495,
2002-03-02, 01:20:00,VALID,916.964,VALID,0,VALID,96.2096,VALID,0,VALID,19.1531,VALID,149,VALID,1.14913,
2002-03-02, 01:21:00,VALID,916.94,VALID,0,VALID,96.2401,VALID,0,VALID,19.1723,VALID,143,VALID,1.30321,
2002-03-02, 01:22:00,VALID,916.932,VALID,0,VALID,96.1956,VALID,0,VALID,19.1884,VALID,146,VALID,1.30045,
2002-03-02, 01:23:00,VALID,916.925,VALID,0,VALID,96.1676,VALID,0.0169808,VALID,19.1886,VALID,147,VALID,1.13447,
2002-03-02, 01:24:00,VALID,916.926,VALID,0,VALID,96.1282,VALID,0.0509425,VALID,19.1817,VALID,141,VALID,0.712416,
2002-03-02, 01:25:00,VALID,916.933,VALID,0,VALID,96.1613,VALID,0.0509425,VALID,19.1981,VALID,125,VALID,0.923775,
2002-03-02, 01:26:00,VALID,916.942,VALID,0,VALID,96.0748,VALID,0.0339617,VALID,19.205,VALID,121,VALID,0.554451,
2002-03-02, 01:27:00,VALID,916.957,VALID,0,VALID,96.01,VALID,0.0679233,VALID,19.2018,VALID,115,VALID,0.64171,
2002-03-02, 01:28:00,VALID,916.95,VALID,0,VALID,96.0341,VALID,0.0679233,VALID,19.205,VALID,122,VALID,0.738715,
2002-03-02, 01:29:00,VALID,916.957,VALID,0,VALID,96.0252,VALID,0.0339617,VALID,19.1916,VALID,130,VALID,0.766544,
2002-03-02, 01:30:00,VALID,916.942,VALID,0,VALID,96.0125,VALID,0.0339617,VALID,19.2046,VALID,129,VALID,0.835515,
2002-03-02, 01:31:00,VALID,916.94,VALID,0,VALID,95.9349,VALID,0.0339617,VALID,19.2078,VALID,139,VALID,0.632589,
2002-03-02, 01:32:00,VALID,916.951,VALID,0,VALID,95.8828,VALID,0.0509425,VALID,19.2371,VALID,108,VALID,0.576705,
2002-03-02, 01:33:00,VALID,916.954,VALID,0,VALID,95.823,VALID,0.0679233,VALID,19.2304,VALID,109,VALID,0.528716,
2002-03-02, 01:34:00,VALID,916.967,VALID,0,VALID,95.734,VALID,0.0339617,VALID,19.2336,VALID,117,VALID,0.55511,
2002-03-02, 01:35:00,VALID,916.972,VALID,0,VALID,95.7862,VALID,0.0339617,VALID,19.2401,VALID,118,VALID,0.864583,
2002-03-02, 01:36:00,VALID,916.984,VALID,0,VALID,95.5992,VALID,0.0169808,VALID,19.2495,VALID,86,VALID,0.140842,
2002-03-02, 01:37:00,VALID,916.966,VALID,0,VALID,95.3742,VALID,0.0679233,VALID,19.2272,VALID,33,VALID,0.14822,
2002-03-02, 01:38:00,VALID,916.958,VALID,0,VALID,95.2686,VALID,0.0339617,VALID,19.1981,VALID,21,VALID,0,
2002-03-02, 01:39:00,VALID,916.941,VALID,0,VALID,95.3297,VALID,0.0509425,VALID,19.166,VALID,21,VALID,0.0686233,
2002-03-02, 01:40:00,VALID,916.937,VALID,0,VALID,95.3996,VALID,-0.0849042,VALID,19.1777,VALID,21,VALID,0,
2002-03-02, 01:41:00,VALID,916.927,VALID,0,VALID,95.3856,VALID,-0.0849042,VALID,19.1516,VALID,21,VALID,0,
2002-03-02, 01:42:00,VALID,916.916,VALID,0,VALID,95.453,VALID,-0.0679233,VALID,19.1419,VALID,22,VALID,0.00105574,
2002-03-02, 01:43:00,VALID,916.904,VALID,0,VALID,95.5611,VALID,-0.0509425,VALID,19.1253,VALID,23,VALID,0,
2002-03-02, 01:44:00,VALID,916.908,VALID,0,VALID,95.3106,VALID,-0.0849042,VALID,19.1031,VALID,23,VALID,0.103456,
2002-03-02, 01:45:00,VALID,916.902,VALID,0,VALID,95.1821,VALID,-0.0339617,VALID,19.0482,VALID,34,VALID,0.550564,
2002-03-02, 01:46:00,VALID,916.889,VALID,0,VALID,95.4746,VALID,-0.0849042,VALID,18.9767,VALID,60,VALID,0.66276,
2002-03-02, 01:47:00,VALID,916.896,VALID,0,VALID,96.0519,VALID,-0.0169808,VALID,18.9735,VALID,89,VALID,0.838006,
2002-03-02, 01:48:00,VALID,916.887,VALID,0,VALID,96.352,VALID,-0.0849042,VALID,18.9961,VALID,114,VALID,0.773015,
2002-03-02, 01:49:00,VALID,916.87,VALID,0,VALID,96.3609,VALID,-0.0339617,VALID,18.9961,VALID,127,VALID,0.955134,
2002-03-02, 01:50:00,VALID,916.853,VALID,0,VALID,96.5237,VALID,-0.0849042,VALID,19.006,VALID,135,VALID,1.03172,
2002-03-02, 01:51:00,VALID,916.832,VALID,0,VALID,96.5873,VALID,-0.0509425,VALID,19.0318,VALID,140,VALID,1.06757,
2002-03-02, 01:52:00,VALID,916.824,VALID,0,VALID,96.572,VALID,-0.0679233,VALID,19.0544,VALID,137,VALID,1.00781,
2002-03-02, 01:53:00,VALID,916.814,VALID,0,VALID,96.4538,VALID,-0.0849042,VALID,19.087,VALID,146,VALID,0.883049,
2002-03-02, 01:54:00,VALID,916.816,VALID,0,VALID,96.3558,VALID,-0.0679233,VALID,19.1064,VALID,137,VALID,1.11003,
2002-03-02, 01:55:00,VALID,916.813,VALID,0,VALID,96.1498,VALID,-0.0679233,VALID,19.1419,VALID,116,VALID,0.519748,
2002-03-02, 01:56:00,VALID,916.821,VALID,0,VALID,95.9502,VALID,-0.0849042,VALID,19.1382,VALID,112,VALID,0.531939,
2002-03-02, 01:57:00,VALID,916.818,VALID,0,VALID,95.8955,VALID,-0.0849042,VALID,19.1382,VALID,117,VALID,0.754223,
2002-03-02, 01:58:00,VALID,916.817,VALID,0,VALID,95.8078,VALID,-0.0509425,VALID,19.1416,VALID,92,VALID,0.589286,
2002-03-02, 01:59:00,VALID,916.819,VALID,0,VALID,95.7353,VALID,-0.0849042,VALID,19.1483,VALID,82,VALID,0.696733,
2002-03-02, 02:00:00,VALID,916.818,VALID,0,VALID,95.6119,VALID,-0.101885,VALID,19.1287,VALID,79,VALID,0.431377,
2002-03-02, 02:01:00,VALID,916.807,VALID,0,VALID,95.7493,VALID,-0.101885,VALID,19.116,VALID,114,VALID,0.97065,
2002-03-02, 02:02:00,VALID,916.793,VALID,0,VALID,95.7569,VALID,-0.101885,VALID,19.1223,VALID,124,VALID,0.756392,
2002-03-02, 02:03:00,VALID,916.787,VALID,0,VALID,95.7556,VALID,-0.101885,VALID,19.1419,VALID,124,VALID,0.870009,
2002-03-02, 02:04:00,VALID,916.78,VALID,0,VALID,95.6946,VALID,-0.101885,VALID,19.1479,VALID,125,VALID,0.712891,
2002-03-02, 02:05:00,VALID,916.765,VALID,0,VALID,95.6844,VALID,-0.101885,VALID,19.1543,VALID,143,VALID,0.995175,
2002-03-02, 02:06:00,VALID,916.751,VALID,0,VALID,95.6361,VALID,-0.0849042,VALID,19.1806,VALID,128,VALID,1.03463,
2002-03-02, 02:07:00,VALID,916.723,VALID,0,VALID,95.5382,VALID,-0.0509425,VALID,19.1968,VALID,146,VALID,0.75,
2002-03-02, 02:08:00,VALID,916.717,VALID,0,VALID,95.4683,VALID,-0.0509425,VALID,19.1936,VALID,128,VALID,0.521544,
2002-03-02, 02:09:00,VALID,916.706,VALID,0,VALID,95.4657,VALID,-0.0679233,VALID,19.1844,VALID,133,VALID,0.811655,
2002-03-02, 02:10:00,VALID,916.698,VALID,0,VALID,95.4365,VALID,0.0169808,VALID,19.1794,VALID,108,VALID,0.345439,
2002-03-02, 02:11:00,VALID,916.689,VALID,0,VALID,95.4492,VALID,0.0169808,VALID,19.1832,VALID,101,VALID,0.416193,
2002-03-02, 02:12:00,VALID,916.691,VALID,0,VALID,95.3805,VALID,0.0679233,VALID,19.1663,VALID,101,VALID,0.422526,
2002-03-02, 02:13:00,VALID,916.701,VALID,0,VALID,95.3932,VALID,0.0339617,VALID,19.1469,VALID,80,VALID,0.341146,
2002-03-02, 02:14:00,VALID,916.695,VALID,0,VALID,95.4187,VALID,0.0339617,VALID,19.1375,VALID,106,VALID,0.500689,
2002-03-02, 02:15:00,VALID,916.682,VALID,0,VALID,95.4212,VALID,0,VALID,19.1211,VALID,104,VALID,0.421664,
2002-03-02, 02:16:00,VALID,916.675,VALID,0,VALID,95.5611,VALID,0.0339617,VALID,19.1146,VALID,115,VALID,0.488839,
2002-03-02, 02:17:00,VALID,916.66,VALID,0,VALID,95.5611,VALID,0.0169808,VALID,19.1111,VALID,136,VALID,0.151752,
2002-03-02, 02:18:00,VALID,916.648,VALID,0,VALID,95.5013,VALID,0.0169808,VALID,19.0821,VALID,90,VALID,0.185177,
2002-03-02, 02:19:00,VALID,916.643,VALID,0,VALID,95.378,VALID,0.0169808,VALID,19.0599,VALID,79,VALID,0.171664,
2002-03-02, 02:20:00,VALID,916.634,VALID,0,VALID,95.3576,VALID,0.0169808,VALID,19.0078,VALID,49,VALID,0.214489,
2002-03-02, 02:21:00,VALID,916.626,VALID,0,VALID,95.5318,VALID,0.0339617,VALID,18.982,VALID,49,VALID,0.313802,
2002-03-02, 02:22:00,VALID,916.616,VALID,0,VALID,95.6425,VALID,0.0509425,VALID,18.9529,VALID,49,VALID,0.0431858,
2002-03-02, 02:23:00,VALID,916.601,VALID,0,VALID,95.7671,VALID,0.0169808,VALID,18.9402,VALID,49,VALID,0,
2002-03-02, 02:24:00,VALID,916.584,VALID,0,VALID,95.9438,VALID,0,VALID,18.9377,VALID,49,VALID,0,
2002-03-02, 02:25:00,VALID,916.577,VALID,0,VALID,96.057,VALID,0,VALID,18.9208,VALID,95,VALID,0.153125,
2002-03-02, 02:26:00,VALID,916.558,VALID,0,VALID,96.1587,VALID,0,VALID,18.9278,VALID,145,VALID,0.406013,
2002-03-02, 02:27:00,VALID,916.562,VALID,0,VALID,96.2897,VALID,0.0169808,VALID,18.9305,VALID,147,VALID,0.534628,
2002-03-02, 02:28:00,VALID,916.552,VALID,0,VALID,96.3444,VALID,0.0509425,VALID,18.9501,VALID,163,VALID,0.666596,
2002-03-02, 02:29:00,VALID,916.562,VALID,0,VALID,96.3927,VALID,0,VALID,18.94,VALID,161,VALID,0.543324,
2002-03-02, 02:30:00,VALID,916.563,VALID,0,VALID,96.3304,VALID,0.0339617,VALID,18.9335,VALID,153,VALID,0.0208333,
2002-03-02, 02:31:00,VALID,916.561,VALID,0,VALID,96.3457,VALID,0.0339617,VALID,18.9335,VALID,141,VALID,0.120443,
2002-03-02, 02:32:00,VALID,916.559,VALID,0,VALID,96.3279,VALID,0,VALID,18.9402,VALID,115,VALID,0.0195313,
2002-03-02, 02:33:00,VALID,916.552,VALID,0,VALID,96.2325,VALID,0.0509425,VALID,18.9107,VALID,115,VALID,0,
2002-03-02, 02:34:00,VALID,916.553,VALID,0,VALID,96.188,VALID,0.0509425,VALID,18.895,VALID,115,VALID,0,
2002-03-02, 02:35:00,VALID,916.549,VALID,0,VALID,96.2745,VALID,0.0509425,VALID,18.8788,VALID,115,VALID,0.0227273,
2002-03-02, 02:36:00,VALID,916.546,VALID,0,VALID,96.394,VALID,0.0169808,VALID,18.8885,VALID,115,VALID,0,
2002-03-02, 02:37:00,VALID,916.534,VALID,0,VALID,96.3647,VALID,0.0169808,VALID,18.8784,VALID,115,VALID,0.0800253,
2002-03-02, 02:38:00,VALID,916.536,VALID,0,VALID,96.3469,VALID,0.0169808,VALID,18.8756,VALID,115,VALID,0.00094697,
2002-03-02, 02:39:00,VALID,916.534,VALID,0,VALID,96.2363,VALID,0.0679233,VALID,18.8562,VALID,115,VALID,0.00976563,
2002-03-02, 02:40:00,VALID,916.538,VALID,0,VALID,96.4372,VALID,-0.0169808,VALID,18.8413,VALID,92,VALID,0.483507,
2002-03-02, 02:41:00,VALID,916.535,VALID,0,VALID,96.497,VALID,-0.0339617,VALID,18.8477,VALID,67,VALID,0.535156,
2002-03-02, 02:42:00,VALID,916.542,VALID,0,VALID,96.4894,VALID,-0.0339617,VALID,18.8346,VALID,67,VALID,0.466427,
2002-03-02, 02:43:00,VALID,916.525,VALID,0,VALID,96.6063,VALID,-0.0339617,VALID,18.8445,VALID,66,VALID,0.402009,
2002-03-02, 02:44:00,VALID,916.533,VALID,0,VALID,96.7958,VALID,-0.0509425,VALID,18.8703,VALID,71,VALID,0.328598,
2002-03-02, 02:45:00,VALID,916.532,VALID,0,VALID,96.8734,VALID,-0.0339617,VALID,18.9029,VALID,92,VALID,0.125422,
2002-03-02, 02:46:00,VALID,916.53,VALID,0,VALID,96.8734,VALID,-0.0849042,VALID,18.9156,VALID,92,VALID,0.0475084,
2002-03-02, 02:47:00,VALID,916.529,VALID,0,VALID,96.9204,VALID,-0.0509425,VALID,18.9446,VALID,105,VALID,0.245975,
2002-03-02, 02:48:00,VALID,916.519,VALID,0,VALID,96.8365,VALID,-0.0849042,VALID,18.9809,VALID,119,VALID,0.315321,
2002-03-02, 02:49:00,VALID,916.52,VALID,0,VALID,96.6648,VALID,-0.0169808,VALID,18.9928,VALID,126,VALID,0.560547,
2002-03-02, 02:50:00,VALID,916.537,VALID,0,VALID,96.5364,VALID,-0.0679233,VALID,18.9993,VALID,130,VALID,0.569164,
2002-03-02, 02:51:00,VALID,916.533,VALID,0,VALID,96.3825,VALID,-0.0169808,VALID,19.0251,VALID,139,VALID,0.865921,
2002-03-02, 02:52:00,VALID,916.545,VALID,0,VALID,96.3088,VALID,-0.0339617,VALID,19.051,VALID,141,VALID,0.820313,
2002-03-02, 02:53:00,VALID,916.514,VALID,0,VALID,96.1931,VALID,-0.0679233,VALID,19.0771,VALID,137,VALID,0.5625,
2002-03-02, 02:54:00,VALID,916.516,VALID,0,VALID,96.0023,VALID,-0.0679233,VALID,19.1029,VALID,139,VALID,0.480152,
2002-03-02, 02:55:00,VALID,916.506,VALID,0,VALID,95.8599,VALID,-0.0679233,VALID,19.1195,VALID,139,VALID,0.268159,
2002-03-02, 02:56:00,VALID,916.501,VALID,0,VALID,95.7582,VALID,-0.0509425,VALID,19.1156,VALID,128,VALID,0.299479,
2002-03-02, 02:57:00,VALID,916.512,VALID,0,VALID,95.5471,VALID,-0.0339617,VALID,19.1126,VALID,111,VALID,0.28928,
2002-03-02, 02:58:00,VALID,916.509,VALID,0,VALID,95.3398,VALID,-0.0849042,VALID,19.0736,VALID,85,VALID,0.425347,
2002-03-02, 02:59:00,VALID,916.525,VALID,0,VALID,95.4708,VALID,-0.0169808,VALID,19.051,VALID,68,VALID,0.591912,
2002-03-02, 03:00:00,VALID,916.515,VALID,0,VALID,95.7175,VALID,-0.0679233,VALID,19.0482,VALID,69,VALID,0.725929,
2002-03-02, 03:01:00,VALID,916.513,VALID,0,VALID,95.8586,VALID,-0.0169808,VALID,19.0448,VALID,86,VALID,0.669866,
2002-03-02, 03:02:00,VALID,916.504,VALID,0,VALID,95.9375,VALID,-0.0509425,VALID,19.0512,VALID,91,VALID,0.447917,
2002-03-02, 03:03:00,VALID,916.494,VALID,0,VALID,96.0659,VALID,-0.0679233,VALID,19.0577,VALID,122,VALID,0.418285,
2002-03-02, 03:04:00,VALID,916.479,VALID,0,VALID,96.0964,VALID,-0.0169808,VALID,19.0738,VALID,118,VALID,0.533995,
2002-03-02, 03:05:00,VALID,916.472,VALID,0,VALID,96.0888,VALID,-0.0339617,VALID,19.0833,VALID,134,VALID,0.549006,
2002-03-02, 03:06:00,VALID,916.458,VALID,0,VALID,95.9235,VALID,-0.0509425,VALID,19.0835,VALID,149,VALID,0.206163,
2002-03-02, 03:07:00,VALID,916.45,VALID,0,VALID,95.79,VALID,-0.0679233,VALID,19.0743,VALID,51,VALID,0.308811,
2002-03-02, 03:08:00,VALID,916.44,VALID,0,VALID,95.467,VALID,-0.0169808,VALID,19.0127,VALID,46,VALID,0.308134,
2002-03-02, 03:09:00,VALID,916.442,VALID,0,VALID,95.3284,VALID,-0.0849042,VALID,18.9414,VALID,46,VALID,0.107052,
2002-03-02, 03:10:00,VALID,916.434,VALID,0,VALID,95.3042,VALID,0.0679233,VALID,18.8881,VALID,46,VALID,0.174777,
2002-03-02, 03:11:00,VALID,916.429,VALID,0,VALID,95.5089,VALID,0.0849042,VALID,18.8366,VALID,45,VALID,0.268939,
2002-03-02, 03:12:00,VALID,916.423,VALID,0,VALID,95.776,VALID,0.0339617,VALID,18.814,VALID,41,VALID,0.358319,
2002-03-02, 03:13:00,VALID,916.412,VALID,0,VALID,96.0659,VALID,0.0679233,VALID,18.8011,VALID,34,VALID,0.40815,
2002-03-02, 03:14:00,VALID,916.404,VALID,0,VALID,96.3126,VALID,0.0509425,VALID,18.8106,VALID,32,VALID,0.100379,
2002-03-02, 03:15:00,VALID,916.384,VALID,0,VALID,96.4258,VALID,0.0339617,VALID,18.8041,VALID,32,VALID,0.00672743,
2002-03-02, 03:16:00,VALID,916.381,VALID,0,VALID,96.4385,VALID,0.0679233,VALID,18.7979,VALID,32,VALID,0.156901,
2002-03-02, 03:17:00,VALID,916.374,VALID,0,VALID,96.3164,VALID,0.0339617,VALID,18.7427,VALID,22,VALID,0.200827,
2002-03-02, 03:18:00,VALID,916.382,VALID,0,VALID,96.3762,VALID,0.0509425,VALID,18.7012,VALID,16,VALID,0.16364,
2002-03-02, 03:19:00,VALID,916.377,VALID,0,VALID,96.4334,VALID,0.0509425,VALID,18.6652,VALID,16,VALID,0,
2002-03-02, 03:20:00,VALID,916.372,VALID,0,VALID,96.5835,VALID,0.0339617,VALID,18.6429,VALID,16,VALID,0,
2002-03-02, 03:21:00,VALID,916.373,VALID,0,VALID,96.7119,VALID,0.0339617,VALID,18.6364,VALID,16,VALID,0,
2002-03-02, 03:22:00,VALID,916.358,VALID,0,VALID,96.7068,VALID,0.0509425,VALID,18.6041,VALID,16,VALID,0,
2002-03-02, 03:23:00,VALID,916.35,VALID,0,VALID,96.6852,VALID,0.0679233,VALID,18.5686,VALID,16,VALID,0,
2002-03-02, 03:24:00,VALID,916.34,VALID,0,VALID,96.7373,VALID,0.0339617,VALID,18.5299,VALID,16,VALID,0,
2002-03-02, 03:25:00,VALID,916.333,VALID,0,VALID,96.7984,VALID,-0.0679233,VALID,18.5054,VALID,16,VALID,0,
2002-03-02, 03:26:00,VALID,916.312,VALID,0,VALID,96.9993,VALID,0,VALID,18.5054,VALID,16,VALID,0,
2002-03-02, 03:27:00,VALID,916.311,VALID,0,VALID,97.143,VALID,-0.0339617,VALID,18.525,VALID,16,VALID,0,
2002-03-02, 03:28:00,VALID,916.289,VALID,0,VALID,97.3261,VALID,-0.0339617,VALID,18.5541,VALID,16,VALID,0,
2002-03-02, 03:29:00,VALID,916.272,VALID,0,VALID,97.4456,VALID,-0.0339617,VALID,18.5705,VALID,16,VALID,0,
2002-03-02, 03:30:00,VALID,916.259,VALID,0,VALID,97.485,VALID,-0.0339617,VALID,18.5635,VALID,16,VALID,0,
2002-03-02, 03:31:00,VALID,916.25,VALID,0,VALID,97.4431,VALID,-0.0339617,VALID,18.5476,VALID,16,VALID,0,